KF4PPJ Weather Reports


Display with metric or nautical units.
time (UTC)temp
F
wind
direction
speed
MPH
gust
MPH
rain 1hr
in
rain 24hr
in
rain mn
in
humidity
%
barometer
mb
20260510055705 54 153 0.0 0.0 0.00 0.00 0.00 90 1019.1
20260510055203 54 154 0.0 0.0 0.00 0.00 0.00 90 1018.9
20260510054658 54 154 0.0 0.0 0.00 0.00 0.00 89 1018.9
20260510054154 54 154 0.0 0.0 0.00 0.00 0.00 89 1018.9
20260510053654 54 154 0.0 0.0 0.00 0.00 0.00 89 1018.9
20260510053151 54 154 0.0 0.0 0.00 0.00 0.00 89 1019.0
20260510052646 54 153 0.0 0.0 0.00 0.00 0.00 89 1018.9
20260510052142 54 153 0.0 0.0 0.00 0.00 0.00 89 1018.8
20260510051638 54 155 0.0 0.0 0.00 0.00 0.00 88 1018.8
20260510051135 54 155 0.0 0.0 0.00 0.00 0.00 88 1018.8
20260510050632 54 147 0.0 0.0 0.00 0.00 0.00 88 1018.9
20260510050130 55 151 0.0 0.0 0.00 0.00 0.00 88 1018.8
20260510045626 55 151 0.0 0.0 0.00 0.00 0.00 88 1018.8
20260510045123 55 152 0.0 0.0 0.00 0.00 0.00 87 1019.0
20260510044619 55 151 0.0 0.0 0.00 0.00 0.00 87 1018.8
20260510044116 55 151 0.0 0.0 0.00 0.00 0.00 87 1018.9
20260510043612 55 152 0.0 0.0 0.00 0.00 0.00 86 1018.9
20260510043108 55 151 0.0 0.0 0.00 0.00 0.00 86 1018.8
20260510042607 56 152 0.0 0.0 0.00 0.00 0.00 85 1018.8
20260510042102 56 151 0.0 0.0 0.00 0.00 0.00 85 1018.8
20260510041600 56 153 0.0 0.0 0.00 0.00 0.00 84 1018.9
20260510041057 56 153 0.0 0.0 0.00 0.00 0.00 84 1018.7
20260510040554 57 153 0.0 0.0 0.00 0.00 0.00 83 1018.7
20260510040049 57 153 0.0 0.0 0.00 0.00 0.00 82 1018.8
20260510035546 57 158 0.0 0.0 0.00 0.00 0.00 81 1018.6
20260510035045 58 164 0.0 0.0 0.00 0.00 0.00 81 1018.5
20260510034544 58 151 0.0 0.0 0.00 0.00 0.00 80 1018.5
20260510034041 59 151 0.0 0.0 0.00 0.00 0.00 79 1018.6
20260510033536 59 150 0.0 0.0 0.00 0.00 0.00 78 1018.7
20260510033035 59 151 0.0 0.0 0.00 0.00 0.00 78 1018.5
20260510032531 60 150 0.0 0.0 0.00 0.00 0.00 77 1018.4
20260510032026 60 157 0.0 0.0 0.00 0.00 0.00 75 1018.7
20260510031521 60 164 0.0 0.0 0.00 0.00 0.00 75 1018.7
20260510031017 61 162 0.0 0.0 0.00 0.00 0.00 74 1018.9
20260510030513 61 161 0.0 0.0 0.00 0.00 0.00 73 1018.8
20260510030011 62 161 0.0 0.0 0.00 0.00 0.00 72 1018.8
20260510025508 62 159 0.0 0.0 0.00 0.00 0.00 71 1018.8
20260510025005 62 162 0.0 0.0 0.00 0.00 0.00 69 1018.8
20260510024502 63 172 1.0 1.0 0.00 0.00 0.00 68 1018.9
20260510023958 64 164 1.0 1.0 0.00 0.00 0.00 65 1019.0
20260510023448 64 167 0.0 2.0 0.00 0.00 0.00 64 1019.0
20260510022945 66 211 2.0 2.0 0.00 0.00 0.00 63 1019.1
20260510022444 66 202 2.0 3.0 0.00 0.00 0.00 62 1019.2
20260510021943 67 164 1.0 1.0 0.00 0.00 0.00 60 1019.0
20260510021441 68 207 3.0 3.0 0.00 0.00 0.00 56 1019.0
20260510020938 68 157 1.0 1.0 0.00 0.00 0.00 58 1019.1
20260510020432 68 152 1.0 1.0 0.00 0.00 0.00 54 1019.0
20260510015928 68 159 1.0 1.0 0.00 0.00 0.00 54 1019.0
20260510015425 67 151 0.0 0.0 0.00 0.00 0.00 55 1019.4
20260510014919 67 158 0.0 1.0 0.00 0.00 0.00 56 1019.3
20260510014418 67 173 1.0 1.0 0.00 0.00 0.00 56 1019.3
20260510013914 67 173 1.0 3.0 0.00 0.00 0.00 55 1019.4
20260510013409 67 127 2.0 6.0 0.00 0.00 0.00 56 1019.6
20260510012904 67 151 1.0 10.0 0.00 0.00 0.00 54 1019.6
20260510012359 68 200 2.0 2.0 0.00 0.00 0.00 53 1019.7
20260510011854 69 231 2.0 5.0 0.00 0.00 0.00 52 1019.6
20260510011349 71 180 2.0 5.0 0.00 0.00 0.00 50 1019.7
20260510010846 71 192 2.0 3.0 0.00 0.00 0.00 52 1019.8
20260510010344 69 187 1.0 2.0 0.00 0.00 0.00 51 1019.8
20260510005840 69 223 3.0 5.0 0.00 0.00 0.00 51 1019.7
20260510005336 69 218 2.0 2.0 0.00 0.00 0.00 50 1019.9
20260510004834 70 176 2.0 2.0 0.00 0.00 0.00 49 1019.9
20260510004331 69 175 1.0 1.0 0.00 0.00 0.00 51 1020.0
20260510003829 69 190 2.0 3.0 0.00 0.00 0.00 50 1020.1
20260510003326 69 220 3.0 3.0 0.00 0.00 0.00 50 1020.2
20260510002824 69 192 2.0 3.0 0.00 0.00 0.00 49 1019.9
20260510002322 69 217 2.0 5.0 0.00 0.00 0.00 48 1020.2
20260510001818 70 175 2.0 3.0 0.00 0.00 0.00 48 1020.2
20260510001317 70 159 1.0 3.0 0.00 0.00 0.00 48 1020.2
20260510000812 70 129 0.0 2.0 0.00 0.00 0.00 46 1020.3
20260510000311 71 222 3.0 3.0 0.00 0.00 0.00 44 1020.6
20260509235807 70 176 0.0 2.0 0.00 0.00 0.00 44 1020.3
20260509235306 71 160 1.0 2.0 0.00 0.00 0.00 44 1020.4
20260509234754 70 159 0.0 2.0 0.00 0.00 0.00 45 1020.4
20260509234250 71 116 2.0 2.0 0.00 0.00 0.00 43 1020.4
20260509233749 70 157 1.0 1.0 0.00 0.00 0.00 46 1020.6
20260509233246 70 141 2.0 5.0 0.00 0.00 0.00 42 1020.6
20260509232742 71 152 0.0 3.0 0.00 0.00 0.00 42 1020.8
20260509232240 70 151 2.0 3.0 0.00 0.00 0.00 44 1020.7
20260509231736 70 106 1.0 3.0 0.00 0.00 0.00 44 1020.8
20260509231233 69 161 1.0 3.0 0.00 0.00 0.00 45 1020.9
20260509230730 70 344 3.0 5.0 0.00 0.00 0.00 44 1021.1
20260509230227 70 134 1.0 3.0 0.00 0.00 0.00 45 1021.0
20260509225722 70 140 1.0 2.0 0.00 0.00 0.00 48 1021.2
20260509225219 69 201 3.0 3.0 0.00 0.00 0.00 47 1021.3
20260509224714 69 235 4.0 7.0 0.00 0.00 0.00 45 1021.2
20260509224211 68 142 3.0 5.0 0.00 0.00 0.00 47 1021.4
20260509223708 69 250 2.0 5.0 0.00 0.00 0.00 48 1021.7
20260509223205 69 270 2.0 6.0 0.00 0.00 0.00 47 1021.7
20260509222702 69 72 3.0 6.0 0.00 0.00 0.00 46 1021.4
20260509222157 68 228 10.0 13.0 0.00 0.00 0.00 46 1021.6
20260509221648 68 191 4.0 7.0 0.00 0.00 0.00 47 1021.6
20260509221144 68 251 5.0 6.0 0.00 0.00 0.00 47 1021.8
20260509220640 68 268 2.0 5.0 0.00 0.00 0.00 47 1021.6
20260509220136 69 175 4.0 6.0 0.00 0.00 0.00 47 1021.7
20260509215633 68 190 3.0 6.0 0.00 0.00 0.00 47 1021.8
20260509215129 68 172 2.0 3.0 0.00 0.00 0.00 50 1021.8
20260509214626 68 141 1.0 6.0 0.00 0.00 0.00 51 1021.9
20260509214117 69 150 1.0 3.0 0.00 0.00 0.00 50 1021.8
20260509213613 68 156 0.0 2.0 0.00 0.00 0.00 53 1021.9
20260509213109 68 62 4.0 9.0 0.00 0.00 0.00 52 1021.8
20260509212607 68 235 5.0 6.0 0.00 0.00 0.00 52 1022.0
20260509212058 68 216 3.0 3.0 0.00 0.00 0.00 53 1021.8
20260509211554 67 209 3.0 6.0 0.00 0.00 0.00 54 1021.9
20260509211051 67 349 3.0 6.0 0.00 0.00 0.00 54 1021.9
20260509210547 68 76 4.0 6.0 0.00 0.00 0.00 54 1022.1
20260509210044 67 151 3.0 6.0 0.00 0.00 0.00 55 1022.1
20260509205538 68 214 3.0 6.0 0.00 0.00 0.00 54 1022.1
20260509205034 68 173 2.0 2.0 0.00 0.00 0.00 54 1022.3
20260509204530 67 180 1.0 3.0 0.00 0.00 0.00 55 1022.1
20260509204027 67 253 3.0 6.0 0.00 0.00 0.00 56 1022.0
20260509203522 67 252 3.0 3.0 0.00 0.00 0.00 57 1022.3
20260509203021 67 212 3.0 6.0 0.00 0.00 0.00 57 1022.2
20260509202515 68 237 3.0 6.0 0.00 0.00 0.00 56 1022.2
20260509202011 67 258 6.0 7.0 0.00 0.00 0.00 57 1022.4
20260509201506 67 173 3.0 5.0 0.00 0.00 0.00 57 1022.5
20260509201004 66 70 1.0 7.0 0.00 0.00 0.00 59 1022.4
20260509200503 65 0 2.0 6.0 0.00 0.00 0.00 61 1022.7
20260509200000 65 206 3.0 6.0 0.00 0.00 0.00 61 1022.7
20260509195455 66 238 6.0 7.0 0.00 0.00 0.00 59 1022.9
20260509194955 65 163 2.0 3.0 0.00 0.00 0.00 60 1022.7
20260509194451 65 207 2.0 7.0 0.00 0.00 0.00 60 1023.0
20260509193948 64 87 1.0 3.0 0.00 0.00 0.00 63 1023.2
20260509193448 64 342 4.0 7.0 0.00 0.00 0.00 62 1022.9
20260509192944 64 243 4.0 6.0 0.00 0.00 0.00 61 1023.2
20260509192441 65 299 4.0 6.0 0.00 0.00 0.00 62 1023.1
20260509191936 64 226 4.0 7.0 0.00 0.00 0.00 62 1023.2
20260509191432 65 18 5.0 7.0 0.00 0.00 0.00 62 1023.4
20260509190928 65 201 1.0 7.0 0.00 0.00 0.00 61 1023.4
20260509190425 65 216 4.0 6.0 0.00 0.00 0.00 61 1023.5
20260509185923 65 1 3.0 8.0 0.00 0.00 0.00 62 1023.4
20260509185420 65 149 2.0 5.0 0.00 0.00 0.00 61 1023.5
20260509184917 65 127 2.0 6.0 0.00 0.00 0.00 62 1023.6
20260509184414 64 167 1.0 2.0 0.00 0.00 0.00 63 1023.5
20260509183911 64 254 4.0 6.0 0.00 0.00 0.00 63 1023.6
20260509183405 64 136 1.0 6.0 0.00 0.00 0.00 64 1023.6
20260509182902 64 128 2.0 8.0 0.00 0.00 0.00 65 1023.5
20260509182358 64 160 0.0 6.0 0.00 0.00 0.00 65 1023.6
20260509181856 63 190 3.0 5.0 0.00 0.00 0.00 66 1023.6
20260509181347 63 224 3.0 5.0 0.00 0.00 0.00 66 1023.5
20260509180845 63 171 3.0 11.0 0.00 0.00 0.00 67 1023.5
20260509180340 63 355 5.0 7.0 0.00 0.00 0.00 66 1023.8
20260509175837 62 213 4.0 6.0 0.00 0.00 0.00 69 1023.9
20260509175333 62 196 1.0 3.0 0.00 0.00 0.00 69 1023.7
20260509174829 62 218 1.0 3.0 0.00 0.00 0.00 68 1024.0
20260509174325 62 148 1.0 5.0 0.00 0.00 0.00 70 1023.9
20260509173821 61 188 3.0 6.0 0.00 0.00 0.00 71 1024.1
20260509173317 61 155 4.0 6.0 0.00 0.00 0.00 70 1024.1
20260509172814 62 155 4.0 6.0 0.00 0.00 0.00 70 1024.1
20260509172310 62 19 3.0 8.0 0.00 0.00 0.00 71 1024.2
20260509171806 62 178 1.0 5.0 0.00 0.00 0.00 71 1024.0
20260509171302 62 265 3.0 3.0 0.00 0.00 0.00 70 1024.0
20260509170759 61 156 0.0 5.0 0.00 0.00 0.00 71 1024.0
20260509170254 60 224 3.0 5.0 0.00 0.00 0.00 72 1024.0
20260509165754 60 159 4.0 6.0 0.00 0.00 0.00 73 1024.0
20260509165244 60 29 4.0 6.0 0.00 0.00 0.00 72 1024.2
20260509164740 59 233 3.0 5.0 0.00 0.00 0.00 75 1024.2
20260509164235 59 211 5.0 9.0 0.00 0.00 0.00 75 1024.3
20260509163732 59 192 3.0 7.0 0.00 0.00 0.00 76 1024.3
20260509163228 58 151 0.0 3.0 0.00 0.00 0.00 78 1024.2
20260509162721 59 186 5.0 9.0 0.00 0.00 0.00 77 1024.5
20260509162216 59 201 7.0 9.0 0.00 0.00 0.00 77 1024.5
20260509161712 60 180 3.0 3.0 0.00 0.00 0.00 75 1024.4
20260509161209 60 122 0.0 0.0 0.00 0.00 0.00 75 1024.5
20260509160704 60 109 1.0 2.0 0.00 0.00 0.00 74 1024.5
20260509160200 59 135 1.0 1.0 0.00 0.00 0.00 75 1024.7
20260509155655 58 170 0.0 1.0 0.00 0.00 0.00 78 1024.8
20260509155152 57 100 1.0 2.0 0.00 0.00 0.00 79 1024.6
20260509154648 58 192 0.0 0.0 0.00 0.00 0.00 78 1024.8
20260509154145 57 157 0.0 0.0 0.00 0.00 0.00 78 1024.8
20260509153642 57 181 0.0 0.0 0.00 0.00 0.00 79 1024.9
20260509153139 57 191 0.0 0.0 0.00 0.00 0.00 80 1024.9
20260509152634 56 115 0.0 0.0 0.00 0.00 0.00 83 1025.0
20260509152132 56 145 0.0 0.0 0.00 0.00 0.00 85 1024.9
20260509151628 55 127 0.0 0.0 0.00 0.00 0.00 88 1024.9
20260509151126 54 146 0.0 0.0 0.00 0.00 0.00 91 1025.0
20260509150624 53 142 0.0 0.0 0.00 0.00 0.00 93 1025.0
20260509150122 53 153 0.0 1.0 0.00 0.00 0.00 95 1025.0
20260509145618 53 132 0.0 0.0 0.00 0.00 0.00 96 1025.2
20260509145113 52 151 0.0 0.0 0.00 0.00 0.00 97 1025.2
20260509144610 51 136 0.0 0.0 0.00 0.00 0.00 97 1025.3
20260509144107 51 156 1.0 2.0 0.00 0.00 0.00 97 1025.1
20260509143604 50 148 0.0 0.0 0.00 0.00 0.00 97 1025.3
20260509143102 49 146 0.0 0.0 0.00 0.00 0.00 97 1024.9
20260509142602 49 146 0.0 0.0 0.00 0.00 0.00 97 1025.1
20260509142058 48 146 0.0 0.0 0.00 0.00 0.00 96 1025.3
20260509141554 48 146 0.0 0.0 0.00 0.00 0.00 96 1025.2
20260509141051 48 146 0.0 0.0 0.00 0.00 0.00 96 1025.4
20260509140548 47 146 0.0 0.0 0.00 0.00 0.00 96 1025.2
20260509140046 47 143 0.0 0.0 0.00 0.00 0.00 96 1025.4
20260509135543 47 148 0.0 0.0 0.00 0.00 0.00 96 1025.3
20260509135041 47 148 0.0 0.0 0.00 0.00 0.00 96 1025.3
20260509134537 47 148 0.0 0.0 0.00 0.00 0.00 96 1025.5
20260509134035 47 148 0.0 0.0 0.00 0.00 0.00 96 1025.2
20260509133532 47 148 0.0 0.0 0.00 0.00 0.00 96 1025.2
20260509133029 47 148 0.0 0.0 0.00 0.00 0.00 96 1025.5
20260509132528 46 148 0.0 0.0 0.00 0.00 0.00 96 1025.6
20260509132026 46 148 0.0 0.0 0.00 0.00 0.00 96 1025.4
20260509131516 46 149 0.0 0.0 0.00 0.00 0.00 96 1025.5
20260509131013 46 145 0.0 0.0 0.00 0.00 0.00 96 1025.5
20260509130509 46 157 0.0 0.0 0.00 0.00 0.00 95 1025.4
20260509130006 46 153 0.0 0.0 0.00 0.00 0.00 95 1025.2
20260509125502 46 154 0.0 0.0 0.00 0.00 0.00 95 1025.3
20260509124958 46 153 0.0 0.0 0.00 0.00 0.00 95 1025.3
20260509124456 46 153 0.0 0.0 0.00 0.00 0.00 95 1025.2
20260509123953 46 153 0.0 0.0 0.00 0.00 0.00 95 1025.3
20260509123450 47 153 0.0 0.0 0.00 0.00 0.00 95 1025.1
20260509122945 47 147 0.0 0.0 0.00 0.00 0.00 95 1025.2
20260509122442 47 142 0.0 1.0 0.00 0.00 0.00 95 1025.4
20260509121939 47 143 0.0 0.0 0.00 0.00 0.00 95 1025.4
20260509121436 47 152 0.0 0.0 0.00 0.00 0.00 95 1025.2
20260509120934 47 152 0.0 0.0 0.00 0.00 0.00 95 1025.5
20260509120432 47 152 0.0 0.0 0.00 0.00 0.00 94 1025.5
20260509115929 47 153 0.0 0.0 0.00 0.00 0.00 94 1025.3
20260509115426 47 152 0.0 0.0 0.00 0.00 0.00 94 1025.3
20260509114924 48 153 0.0 0.0 0.00 0.00 0.00 94 1025.3
20260509114423 48 152 0.0 0.0 0.00 0.00 0.00 94 1025.5
20260509113922 48 152 0.0 0.0 0.00 0.00 0.00 94 1025.6
20260509113419 48 153 0.0 0.0 0.00 0.00 0.00 93 1025.3
20260509112916 48 153 0.0 0.0 0.00 0.00 0.00 93 1025.4
20260509112413 48 153 0.0 0.0 0.00 0.00 0.00 93 1025.3
20260509111909 48 153 0.0 0.0 0.00 0.00 0.00 93 1025.5
20260509111406 49 152 0.0 0.0 0.00 0.00 0.00 93 1025.5
20260509110904 49 153 0.0 0.0 0.00 0.00 0.00 93 1025.5
20260509110359 49 152 0.0 0.0 0.00 0.00 0.00 92 1025.3
20260509105858 49 153 0.0 0.0 0.00 0.00 0.00 92 1025.7
20260509105356 50 153 0.0 0.0 0.00 0.00 0.00 92 1025.7
20260509104852 50 152 0.0 0.0 0.00 0.00 0.00 92 1025.7
20260509104349 50 153 0.0 0.0 0.00 0.00 0.00 91 1025.6
20260509103847 50 150 0.0 0.0 0.00 0.00 0.00 91 1025.5
20260509103344 50 150 0.0 0.0 0.00 0.00 0.00 90 1025.6
20260509102843 51 130 0.0 0.0 0.00 0.00 0.00 90 1025.6
20260509102339 51 148 0.0 1.0 0.00 0.00 0.00 89 1025.5
20260509101835 51 143 1.0 1.0 0.00 0.00 0.00 89 1025.6
20260509101331 52 153 0.0 1.0 0.00 0.00 0.00 88 1025.7
20260509100830 52 153 0.0 0.0 0.00 0.00 0.00 87 1025.6
20260509100326 52 161 0.0 2.0 0.00 0.00 0.00 87 1025.9
20260509095823 53 161 0.0 0.0 0.00 0.00 0.00 87 1026.0
20260509095320 53 154 0.0 0.0 0.00 0.00 0.00 86 1026.0
20260509094817 53 172 1.0 1.0 0.00 0.00 0.00 85 1025.8
20260509094314 53 167 0.0 2.0 0.00 0.00 0.00 85 1025.8
20260509093812 53 166 0.0 0.0 0.00 0.00 0.00 85 1025.9
20260509093309 53 203 0.0 0.0 0.00 0.00 0.00 85 1025.9
20260509092807 53 189 1.0 1.0 0.00 0.00 0.00 85 1026.0
20260509092306 53 164 1.0 1.0 0.00 0.00 0.00 85 1026.0
20260509091803 53 158 0.0 0.0 0.00 0.00 0.00 85 1025.9
20260509091259 53 171 0.0 0.0 0.00 0.00 0.00 85 1026.1
20260509090756 53 159 0.0 0.0 0.00 0.00 0.00 85 1025.9
20260509090253 53 155 1.0 1.0 0.00 0.00 0.00 85 1026.2
20260509085751 54 171 0.0 0.0 0.00 0.00 0.00 85 1026.3
20260509085248 54 170 0.0 1.0 0.00 0.00 0.00 85 1026.2
20260509084744 54 173 1.0 2.0 0.00 0.00 0.00 85 1026.4
20260509084241 54 177 1.0 2.0 0.00 0.00 0.00 85 1026.4
20260509083739 54 202 0.0 2.0 0.00 0.00 0.00 85 1026.0
20260509083236 54 213 3.0 3.0 0.00 0.00 0.00 85 1026.0
20260509082732 54 172 2.0 2.0 0.00 0.00 0.00 85 1026.2
20260509082230 54 167 1.0 1.0 0.00 0.00 0.00 85 1026.1
20260509081726 54 171 1.0 3.0 0.00 0.00 0.00 85 1026.2
20260509081224 54 182 1.0 1.0 0.00 0.00 0.00 84 1026.0
20260509080722 54 157 0.0 1.0 0.00 0.00 0.00 84 1026.3
20260509080219 54 169 1.0 2.0 0.00 0.00 0.00 84 1025.9
20260509075718 54 191 1.0 3.0 0.00 0.00 0.00 85 1026.1
20260509075215 53 185 0.0 1.0 0.00 0.00 0.00 87 1026.1
20260509074711 52 166 2.0 2.0 0.00 0.00 0.00 89 1025.9
20260509074209 52 156 0.0 0.0 0.00 0.00 0.00 90 1026.2
20260509073705 52 161 0.0 0.0 0.00 0.00 0.00 90 1025.9
20260509073201 51 152 0.0 0.0 0.00 0.00 0.00 90 1026.1
20260509072658 51 151 0.0 0.0 0.00 0.00 0.00 90 1026.0
20260509072155 51 149 0.0 0.0 0.00 0.00 0.00 91 1025.9
20260509071651 51 145 0.0 0.0 0.00 0.00 0.00 91 1025.9
20260509071148 50 151 0.0 0.0 0.00 0.00 0.00 91 1025.9
20260509070645 50 141 0.0 0.0 0.00 0.00 0.00 91 1025.8
20260509070142 50 159 0.0 0.0 0.00 0.00 0.00 91 1026.1
20260509065637 50 150 0.0 0.0 0.00 0.00 0.00 91 1025.9
20260509065129 50 150 0.0 0.0 0.00 0.00 0.00 91 1025.8
20260509064626 50 150 0.0 0.0 0.00 0.00 0.00 91 1025.6
20260509064124 50 152 0.0 0.0 0.00 0.00 0.00 91 1025.8
20260509063620 50 152 0.0 0.0 0.00 0.00 0.00 91 1025.9
20260509063117 50 152 0.0 0.0 0.00 0.00 0.00 91 1025.8
20260509062614 49 146 1.0 2.0 0.00 0.00 0.00 91 1025.9
20260509062111 49 139 0.0 0.0 0.00 0.00 0.00 91 1025.8
20260509061608 49 129 0.0 0.0 0.00 0.00 0.00 91 1025.8
20260509061105 49 160 0.0 0.0 0.00 0.00 0.00 91 1025.6
20260509060603 49 152 0.0 0.0 0.00 0.00 0.00 90 1025.6